FENGYUN 1C DEB

Satellite information

Favourite Embed

Satellite Type and Status

DEBRISDECAYED

Key statistics

Satellite FENGYUN 1C DEB at a glance.

Uptime

9596

Days in orbit

Revolutions

≈ 16.0

Per day

Orbit

SSO

Sun Synchronous Orbit

Inclination

98.9

Latest

Satellite identification and parameters

Extended collection of information and parameters for FENGYUN 1C DEB.

Object identification

Identified? True

Debris? True

Object name: FENGYUN 1C DEB

International designator: 1999-025AGX

Object number (NORAD): 30485

Object ID (CCSDS): 30485

Country: PEOPLES REPUBLIC OF CHINA (PRC)

Current information (Y/N): Y

RCS size: SMALL

Orbital parameters

Decay date: Aug. 17, 2025

Period: 90.157 minutes

Inclination: 98.9047 deg

SMA: 6660.299 km

Apoapsis: 296.51 km

Periapsis: 267.819 km

RAAN: 201.8742 deg

Eccentricy: 0.0021539

Argument of periapsis: 168.1786 deg

Mean anomaly: 191.9996 deg

Mean motion: 15.97210452 rev/day

Mean motion (dot): 0.05589918 rev/day2

B* drag term: 0.017405 1/REarth

Two-line elements (TLE)

Creation date: Aug. 20, 2025, 12:06 a.m.

Reference frame: TEME

Reference center: EARTH

Epoch: Aug. 15, 2025, 10:26 a.m. UTC

TLE line 0: 0 FENGYUN 1C DEB

TLE line 1: 1 30485U 99025AGX 25227.43519592 .05589918 63052-1 17405-1 0 9991

TLE line 2: 2 30485 98.9047 201.8742 0021539 168.1786 191.9996 15.97210452970983

Live tracking on map

Satellite FENGYUN 1C DEB has decayed and is no longer in orbit. No tracking available.

In-orbit conjunctions

Satellite FENGYUN 1C DEB has decayed and is no longer in orbit. No conjunctions available.

Associated space launch

Chinese polar orbiting meteorological satellite

FENGYUN 1C DEB was lifted into orbit during the mission ‘Long March 4B | Feng Yun 1C’, on board a Long March 4B space rocket.

The launch took place on May 10, 1999, 1:33 a.m. from Launch Complex 7.

For more information about the launch, click the button.

Launch to space Long March 4B | Feng Yun 1C
Long March 4B | Feng Yun 1C

Agency: N/A

Status: Launch Successful

Launch date: May 10, 1999, 1:33 a.m. UTC

Rocket: Long March 4B

Launch pad: Launch Complex 7

Location: Taiyuan Satellite Launch Center, People's Republic of China

...

Latest news about this satellite

There are no fresh news available about this satellite. Check back as we update our databases every day.


Newsletter sign-up

Weekly statistics, charts and insights to help you stay on top of the space industry.